Showing default

TEMPSAT 1, 1512

Orbit data source: Space-Track

TEMPSAT 1, 1512 is a payload satellite owned by NRL (US) in LEO that was launched on Fri, 13 Aug 1965 UTC via a THOR ABLESTAR launch vehicle from the Air Force Western Test Range (AFWTR). Payload-class satellites include a variety of spacecraft equipped with specific instruments for various scientific and technological missions. These include communications satellites like Starlink; space stations such as the ISS; scientific satellites like the Hubble; Earth observation satellites from companies like Planet Labs, Umbra, and HawkEye 360; GPS; miniature CubeSats for education and research; and military/defense satellites.

Loading next visibility...
Identifier
1512, 1965-065E
Orbit
LEO
Country
Flag of USUS
Related business
Manufacturer
NRL
Mission
Operational spacecraft
Bus & Motor
NRL 14", Unknown motor
Mass
9 kg wet, 9 kg dry
Launch date (UTC)
1965-08-13 (61 years ago)
Launch vehicle
THOR ABLESTAR
Launch site
Air Force Western Test Range (AFWTR)
Object type
Payload
Rocket body
Debris
Shape & HBR
Unknown
Radar Cross Section
Medium (>0.1 m² and <1 m²)

Expand to show TLE details & history
Last TLE update: 19 hours ago

TLE from 19 hours ago
0 TEMPSAT 1
1  1512U 65065E   26197.56074105  .00000025  00000-0  31874-4 0  9998
2  1512  89.9978 212.5947 0070210 164.5847 315.0437 13.33595613963961
Epoch: 2026-07-16T13:27Z
TLE epoch observation values (Epoch: 2026-07-16T13:27:28.026Z)
Latitude
61.03193°
Longitude
-103.67647°
Altitude
1,106.59 km
Speed
7.323 km/s
True Right ascension
02h 10m 21s
True Declination
60° 53' 34"
Sunlit
Object was in daylight at epoch
Visualization orbit readout
Latitude
Unknown
Longitude
Unknown
Altitude
Unknown
Speed
Unknown
Apparent Right ascension
Unknown
Apparent Declination
Unknown
Sunlit
N/A
Visualization observer readout
Local Sidereal Time
20:44:23
Azimuth
Unknown
Elevation
Unknown
Doppler factor
Unknown
Orbital elements
Apogee altitude
1,183.022 km
Perigee altitude
1,077.588 km
Semi-major axis
7,508.442 km
Eccentricity
0.00702
Inclination
89.9978°
RAAN
212.5947°
Arg. of periapsis
164.5847°
True anomaly
314.47169°
Mean anomaly
315.0437°
Eccentric anomaly
314.75805°
Mean motion
3.33594 °/min
Orbital period
107.92 mins
BSTAR
0.000031874
Loading maneuver chart data...
Computing Atmospheric mass density...
Loading historical data...
Loading historical data...
Loading historical data...
Loading historical data...
Loading historical data...
Loading historical data...
Loading historical data...

Documentation

Showing up to 5 results
|